Location: Barrow Cemetery
(35.4640°N, 90.0870°W)
Time: 05:07:59
(UTC+00:00)

Hubble Space Telescope - Visible Passes

Search period start: 21 June 2024 00:00
Search period end: 01 July 2024 00:00
Orbit: 510 x 514 km, 28.5° (Epoch: 20 June)

Date Brightness Start Highest point End Pass type
(mag) Time Alt. Az. Time Alt. Az. Time Alt. Az.
25 Jun 3.1 09:56:24 10° SSE 09:57:07 10° SSE 09:57:50 10° SSE visible
26 Jun 2.9 09:36:25 10° S 09:37:55 12° SSE 09:39:24 10° SE visible
27 Jun 2.8 09:18:08 13° S 09:18:41 13° SSE 09:20:38 10° SE visible
28 Jun 2.8 08:59:53 14° SSE 08:59:53 14° SSE 09:01:44 10° SE visible
29 Jun 2.9 08:41:38 14° SE 08:41:38 14° SE 08:42:44 10° ESE visible
29 Jun 1.9 10:16:52 10° SW 10:20:19 28° S 10:23:45 10° ESE visible
30 Jun 3.2 08:23:23 11° SE 08:23:23 11° SE 08:23:42 10° ESE visible
30 Jun 1.8 09:58:10 13° SW 10:01:05 29° S 10:04:33 10° ESE visible
